Retour au catalogue

STARLINK-31201

ActifCommunicationsVLEO
NORAD 58870·PAYLOAD·🇺🇸 United States

Lancé Jan 29, 2024 depuis Cape Canaveral Space Force Station

Loading…

Prochains Passages (prochaines 24 heures)

TLE

FraisSource: CelesTrak SupGP

Époque: Sep 14, 2026, 22:18 UTC

1 58870C 24019T   26257.92965278  .00027895  00000+0  10106-2 0  2571
2 58870  42.9992 259.7943 0001434 264.9424 284.1172 15.27555988    18

Suivez STARLINK-31201 en temps réel avec AllMySat

Download on the App Store